Time,TemperatureF,DewpointF,PressureIn,WindDirection,WindDirectionDegrees,WindSpeedMPH,WindSpeedGustMPH,Humidity,HourlyPrecipIn,Conditions,Clouds,dailyrainin,SoftwareType,DateUTC
2015-01-27 00:03:00,57.0,51.0,29.91,West,263,0.0,3.0,81,0.00,,,0.00,,2015-01-27 05:03:00,
2015-01-27 00:13:00,57.0,51.0,29.91,West,263,0.0,3.0,81,0.00,,,0.00,,2015-01-27 05:13:00,
2015-01-27 00:23:00,57.0,51.0,29.93,West,265,4.0,4.0,80,0.00,,,0.00,,2015-01-27 05:23:00,
2015-01-27 00:44:00,57.0,51.0,29.93,WSW,242,8.0,9.0,81,0.00,,,0.00,,2015-01-27 05:44:00,
2015-01-27 00:53:00,57.0,51.0,29.92,NNW,328,3.0,6.0,79,0.00,,,0.00,,2015-01-27 05:53:00,
2015-01-27 01:03:00,57.0,51.0,29.92,NNW,328,3.0,6.0,79,0.00,,,0.00,,2015-01-27 06:03:00,
2015-01-27 01:13:00,57.0,51.0,29.92,NNW,328,3.0,6.0,79,0.00,,,0.00,,2015-01-27 06:13:00,
2015-01-27 01:23:00,57.0,51.0,29.92,NNW,328,3.0,6.0,79,0.00,,,0.00,,2015-01-27 06:23:00,
2015-01-27 01:53:00,56.0,50.0,29.93,West,259,3.0,9.0,81,0.00,,,0.00,,2015-01-27 06:53:00,
2015-01-27 02:22:00,55.0,50.0,29.91,WSW,257,3.0,3.0,82,0.00,,,0.00,,2015-01-27 07:22:00,
2015-01-27 02:53:00,54.0,49.0,29.91,WSW,244,3.0,5.0,84,0.00,,,0.01,,2015-01-27 07:53:00,
2015-01-27 03:12:00,54.0,49.0,29.91,WNW,300,3.0,4.0,84,0.00,,,0.01,,2015-01-27 08:12:00,
2015-01-27 03:22:00,54.0,50.0,29.92,SW,236,3.0,3.0,86,0.00,,,0.01,,2015-01-27 08:22:00,
2015-01-27 03:42:00,54.0,50.0,29.92,West,271,2.0,4.0,86,0.00,,,0.01,,2015-01-27 08:42:00,
2015-01-27 03:53:00,54.0,50.0,29.92,West,271,2.0,4.0,86,0.00,,,0.01,,2015-01-27 08:53:00,
2015-01-27 04:03:00,54.0,50.0,29.92,West,271,2.0,4.0,86,0.00,,,0.01,,2015-01-27 09:03:00,
2015-01-27 04:23:00,53.0,50.0,29.91,WSW,250,3.0,5.0,88,0.00,,,0.01,,2015-01-27 09:23:00,
2015-01-27 04:33:00,53.0,50.0,29.91,WSW,250,3.0,5.0,88,0.00,,,0.01,,2015-01-27 09:33:00,
2015-01-27 04:44:00,53.0,50.0,29.91,WSW,250,3.0,5.0,88,0.00,,,0.01,,2015-01-27 09:44:00,
2015-01-27 04:54:00,52.0,49.0,29.92,West,261,3.0,3.0,90,0.00,,,0.01,,2015-01-27 09:54:00,
2015-01-27 05:24:00,52.0,49.0,29.92,WSW,258,3.0,3.0,91,0.00,,,0.01,,2015-01-27 10:24:00,
2015-01-27 05:44:00,53.0,50.0,29.92,NW,326,3.0,4.0,91,0.00,,,0.01,,2015-01-27 10:44:00,
2015-01-27 05:54:00,54.0,50.0,29.93,NW,325,3.0,5.0,87,0.00,,,0.01,,2015-01-27 10:54:00,
2015-01-27 06:03:00,54.0,50.0,29.93,NW,325,3.0,5.0,87,0.00,,,0.01,,2015-01-27 11:03:00,
2015-01-27 06:13:00,54.0,50.0,29.93,NW,325,3.0,5.0,87,0.00,,,0.01,,2015-01-27 11:13:00,
2015-01-27 06:23:00,54.0,50.0,29.94,West,277,3.0,4.0,85,0.00,,,0.01,,2015-01-27 11:23:00,
2015-01-27 06:52:00,53.0,49.0,29.96,NW,317,4.0,6.0,85,0.00,,,0.01,,2015-01-27 11:52:00,
2015-01-27 07:23:00,52.0,48.0,29.96,NW,325,4.0,4.0,87,0.00,,,0.01,,2015-01-27 12:23:00,